Weather in Pokachi

Russia / Khanty-Mansi Autonomous Okrug — Yugra     61°44′32″N   75°35′38″E
temp.,
°C
wind,
m/s
gust,
m/s
humid.,
%
clouds,
%
prec.,
mm/h
press.,
hPa
HPBL,
m
22 april, thu
thu2223:00−10se229387 0.0 103811
02:00−9s239474 0.0 103928
05:00−8ssw36915 0.0 104185
08:00−2sw477719 0.0 1041339
11:00+1ssw5775100 0.0 1042697
14:00+3sw477370 0.0 1042579
17:00+3ssw467137 0.0 1041422
20:00−1s488430 0.0 1041114
23 april, fri
fri2323:00−2s511835 0.0 1041196
02:00−2s511855 0.0 1041222
05:00−3s511865 0.0 1040212
08:00+1s613735 0.0 1040452
11:00+5s711641 0.0 1039621
14:00+7s711565 0.0 1037808
17:00+7s711605 0.0 1037524
20:00+3s511775 0.0 1036210
24 april, sat
sat2423:00+2s613795 0.0 1035260
02:00+1s5118489 0.0 1034239
05:00+1s51083100 0.0 1033254
08:00+2s51085100 0.3 1032307
11:00+2s51096100 1.5 1031557
14:00+5ssw3671100 0.6 1030411
17:00+5wnw127691 0.6 102937
20:00+1n1193100 0.0 102912
25 april, sun
sun2523:00+2s1196100 0.0 102914
02:00+2sw1199100 0.0 102810
05:00+2wnw1199100 0.0 102810
08:00+2ne1199100 0.0 102834
11:00+3ese1298100 0.0 1028103
14:00+4e229399 0.0 1028109
17:00+6ene348487 0.0 1027279
20:00+3ene479299 0.0 1027122
26 april, mon
mon2623:00+2ese369093 0.0 102684
02:00+2sse35865 0.0 102564
05:00+2se48858 0.0 1024114
08:00+5se51173100 0.0 1022430
11:00+8se71058100 0.0 1019966
14:00+10se81051100 0.0 10161538
17:00+10sse81351100 0.0 10141550
20:00+7se71377100 0.0 1013986